Location: Alphen aan den Rijn
(52.1277°N, 4.6689°E)
Time: 19:03:54
(UTC+02:00)

Envisat - Visible Passes

Search period start: 16 October 2018 00:00
Search period end: 26 October 2018 00:00
Orbit: 764 x 766 km, 98.2° (Epoch: 16 October)

Date Brightness Start Highest point End Pass type
(mag) Time Alt. Az. Time Alt. Az. Time Alt. Az.
16 Oct 3.7 19:27:50 10° SE 19:32:22 34° ENE 19:36:55 10° N visible
16 Oct 4.1 21:06:29 10° S 21:11:18 43° W 21:16:11 10° NNW visible
17 Oct 3.0 20:29:22 10° SSE 20:34:27 84° WSW 20:39:35 10° NNW visible
17 Oct 5.8 22:11:35 10° WSW 22:14:17 14° W 22:16:59 10° NW visible
18 Oct 3.1 19:52:52 10° SE 19:57:46 52° ENE 20:02:43 10° N visible
18 Oct 4.9 21:32:45 10° SSW 21:37:04 27° W 21:41:25 10° NW visible
19 Oct 3.9 19:16:59 10° ESE 19:21:17 29° ENE 19:25:37 10° N visible
19 Oct 3.7 20:55:07 10° S 21:00:04 53° W 21:05:04 10° NNW visible
20 Oct 2.9 20:18:11 10° SSE 20:23:16 81° ENE 20:28:23 10° NNW visible
20 Oct 5.6 21:59:36 10° SW 22:02:56 17° W 22:06:18 10° NW visible
21 Oct 3.3 19:41:52 10° SE 19:46:39 43° ENE 19:51:27 10° N visible
21 Oct 4.6 21:21:14 10° SSW 21:25:47 33° W 21:30:24 10° NNW visible
22 Oct 4.1 19:06:11 10° ESE 19:10:12 24° ENE 19:14:15 10° N visible
22 Oct 3.4 20:43:48 10° S 20:48:51 64° WSW 20:53:56 10° NNW visible
22 Oct 6.0 22:27:57 10° W 22:28:54 10° W 22:29:52 10° WNW visible
23 Oct 2.9 20:07:04 10° SSE 20:12:06 67° ENE 20:17:10 10° N visible
23 Oct 5.3 21:47:47 10° SW 21:51:37 21° W 21:55:27 10° NW visible
24 Oct 3.6 19:30:55 10° SE 19:35:32 36° ENE 19:40:10 10° N visible
24 Oct 4.2 21:09:46 10° SSW 21:14:32 40° W 21:19:20 10° NNW visible
25 Oct 4.2 18:55:26 10° ESE 18:59:09 21° NE 19:02:52 10° N visible
25 Oct 3.1 20:32:33 10° S 20:37:39 78° WSW 20:42:45 10° NNW visible
25 Oct 5.9 22:15:11 10° WSW 22:17:32 13° W 22:19:54 10° WNW visible
